User: anonymous   Login
Location: Unspecified
(0.0000°N, 0.0000°E)
Time: 09:25:54
(UTC+01:00)
Language:

Cosmos 407 Rocket - Orbit

View from above orbital plane
View from above orbital plane
View from above satellite
View from above satellite

Ground track
Ground track

The orbit data is extracted from the following two-line orbital elements,

1 05175U 71035B   16339.79837197  .00000074  00000-0  32957-4 0  9998
2 05175  74.0472 206.8408 0028931 104.6095 255.8270 14.37830823387006
Epoch (UTC): 04 December 2016 19:09:39
Eccentricity: 0.0028931
inclination: 74.0472°
perigee height: 745 km
apogee height: 786 km
right ascension of ascending node: 206.8408°
argument of perigee: 104.6095°
revolutions per day: 14.37830823
mean anomaly at epoch: 255.8270°
orbit number at epoch: 38700

The dashed part of the orbit path shows where the satellite is in the earth's shadow,  

DLR